Flag for U.S.A. Weather past 2 weeks in Ocala, Florida, U.S.A.

Now
75 °F

Clear.


Feels Like: 74 °F
Forecast: 71 / 90 °F
Wind: 3 mph from Northeast

Location: Ocala Municipal

Current Time: Aug 31, 2014 at 2:36:08 AM

Latest Report: Aug 31, 2014 at 1:55 AM


Visibility: 10 mi

Pressure: 30.15 "Hg

Humidity: 94%

Dew point: 73 °F

Location of OcalaLocation

Historic Weather in Ocala — Graph

°F

Ocala temperature yesterday

Maximum temperature yesterday: 91 °F (at 3:50 PM)
Minimum temperature yesterday: 72 °F (at 6:50 AM)
Average temperature yesterday: 77 °F

Past Weeks' High & Low Weather Summary

 TemperatureHumidityPressure
High97 °F (Aug 23, 2:50 PM)100% (Aug 16, 3:35 AM)30.17 "Hg (Aug 16, 3:35 AM)
Low66 °F (Aug 28, 5:15 AM)34% (Aug 28, 3:50 PM)29.80 "Hg (Aug 24, 3:50 PM)
Average78 °F82%30.01 "Hg
* Reported Aug 16 1:15 AM — Aug 31 1:35 AM, Ocala, Weather by CustomWeather, © 2014

Note: Actual official high and low records may vary slightly from our data, if they occured in-between our weather recording intervals... More about our weather records

Advertising

Ocala weather history for previous 24 hours

 ConditionsComfort  
Time TempWeatherWind HumidityBarometerVisibility
1:35 AM
Aug 31
75 °FPassing clouds.No wind94%30.16 "Hg10 mi
1:15 AM75 °FPassing clouds.3 mph94%30.17 "Hg10 mi
12:55 AM75 °FOvercast.3 mph94%30.17 "Hg10 mi
12:35 AM75 °FPassing clouds.5 mph94%30.16 "Hg10 mi
12:15 AM75 °FPassing clouds.3 mph94%30.16 "Hg10 mi
11:55 PM
Aug 30
75 °FOvercast.5 mph94%30.16 "Hg10 mi
11:35 PM75 °FPassing clouds.6 mph94%30.16 "Hg10 mi
11:15 PM75 °FPassing clouds.No wind94%30.15 "Hg10 mi
10:55 PM75 °FPassing clouds.No wind94%30.14 "Hg10 mi
10:35 PM75 °FPassing clouds.No wind94%30.14 "Hg10 mi
10:15 PM75 °FClear.3 mph94%30.14 "Hg10 mi
9:55 PM75 °FThundershowers. Passing clouds.No wind89%30.12 "Hg10 mi
9:35 PM77 °FThunderstorms. Passing clouds.5 mph89%30.11 "Hg10 mi
9:15 PM75 °FPassing clouds.12 mph89%30.11 "Hg10 mi
8:55 PM75 °FThunderstorms. Passing clouds.9 mph83%30.11 "Hg3 mi
8:35 PM82 °FScattered clouds.5 mph70%30.09 "Hg10 mi
8:15 PM81 °FScattered clouds.3 mph79%30.08 "Hg10 mi
7:55 PM79 °FThundershowers. Passing clouds.5 mph84%30.07 "Hg10 mi
6:50 PM81 °FPassing clouds.7 mph79%30.06 "Hg10 mi
5:50 PM90 °FScattered clouds.8 mph59%30.05 "Hg10 mi
4:50 PM91 °FPassing clouds.No wind52%30.05 "Hg10 mi
3:50 PM91 °FScattered clouds.No wind52%30.08 "Hg10 mi
2:50 PM90 °FScattered clouds.5 mph55%30.09 "Hg10 mi
1:50 PM88 °FScattered clouds.6 mph59%30.11 "Hg10 mi
12:50 PM88 °FScattered clouds.6 mph59%30.13 "Hg10 mi
11:50 AM88 °FPassing clouds.6 mph62%30.14 "Hg10 mi
10:50 AM82 °FSunny.6 mph74%30.15 "Hg10 mi
9:50 AM79 °FSunny.6 mph84%30.16 "Hg10 mi
8:50 AM75 °FSunny.6 mph94%30.15 "Hg10 mi
8:03 AM73 °FFog.6 mph94%30.14 "Hg3 mi
7:50 AM73 °FFog.6 mph94%30.14 "Hg2 mi
6:50 AM72 °FClear.No wind100%30.12 "Hg7 mi
6:35 AM73 °FClear.No wind94%30.12 "Hg5 mi
5:55 AM73 °FClear.No wind94%30.11 "Hg5 mi
5:35 AM73 °FClear.No wind94%30.10 "Hg5 mi
5:15 AM73 °FClear.No wind94%30.10 "Hg5 mi
4:55 AM73 °FClear.No wind94%30.10 "Hg6 mi
4:35 AM73 °FClear.No wind94%30.11 "Hg5 mi
4:15 AM73 °FClear.No wind94%30.11 "Hg5 mi
3:55 AM73 °FClear.No wind94%30.11 "Hg8 mi
3:35 AM73 °FClear.6 mph94%30.12 "Hg7 mi
3:15 AM73 °FClear.5 mph94%30.11 "Hg8 mi
2:55 AM73 °FPassing clouds.7 mph94%30.11 "Hg9 mi
2:35 AM73 °FPassing clouds.3 mph94%30.11 "Hg7 mi
Weather by CustomWeather, © 2014

See weather overviewHow to use our weather pages